K9ZOG Weather Reports


time (UTC)temp
F
wind
direction
speed
knots
gust
knots
rain 1hr
in
rain 24hr
in
rain mn
in
humidity
%
barometer
mb
20260906121125 56 360 0.0 0.0 0.00 0.00 0.00 96 1020.6
20260906120626 56 360 0.0 0.0 0.00 0.00 0.00 96 1020.6
20260906120125 56 360 0.0 0.0 0.00 0.00 0.00 96 1020.5
20260906115626 56 360 0.0 0.0 0.00 0.00 0.00 96 1020.5
20260906115125 56 360 0.0 0.0 0.00 0.00 0.00 96 1020.5
20260906114625 56 360 0.0 0.0 0.00 0.00 0.00 96 1020.3
20260906114125 56 360 0.0 0.0 0.00 0.00 0.00 96 1020.2
20260906113625 56 360 0.0 0.0 0.00 0.00 0.00 96 1020.1
20260906113125 56 360 0.0 0.0 0.00 0.00 0.00 96 1020.1
20260906112625 56 360 0.0 0.0 0.00 0.00 0.00 96 1020.1
20260906112125 56 360 0.0 0.0 0.00 0.00 0.00 95 1020.1
20260906111625 56 360 0.0 0.0 0.00 0.00 0.00 95 1020.1
20260906111126 57 360 0.0 0.0 0.00 0.00 0.00 95 1020.1
20260906110626 57 360 0.0 0.0 0.00 0.00 0.00 95 1020.2
20260906110125 57 5 0.0 0.0 0.00 0.00 0.00 95 1020.3
20260906105625 57 360 0.0 0.0 0.00 0.00 0.00 95 1020.2
20260906105126 57 326 0.0 0.0 0.00 0.00 0.00 95 1020.1
20260906104625 56 347 0.9 1.7 0.00 0.00 0.00 95 1020.0
20260906104125 56 360 0.0 0.0 0.00 0.00 0.00 95 1019.9
20260906103625 56 360 0.0 0.0 0.00 0.00 0.00 95 1019.9
20260906103125 56 360 0.0 0.0 0.00 0.00 0.00 95 1020.0
20260906102626 57 349 0.0 0.9 0.00 0.00 0.00 94 1020.0
20260906102125 57 360 0.0 0.0 0.00 0.00 0.00 94 1020.1
20260906101625 57 360 0.0 0.0 0.00 0.00 0.00 94 1020.1
20260906101126 57 360 0.0 0.0 0.00 0.00 0.00 94 1020.1
20260906100625 57 360 0.0 0.0 0.00 0.00 0.00 94 1020.2
20260906100126 57 346 0.9 0.9 0.00 0.00 0.00 94 1020.2
20260906095626 57 352 0.9 0.9 0.00 0.00 0.00 94 1020.1
20260906095125 57 360 0.0 0.0 0.00 0.00 0.00 93 1019.8
20260906094625 57 360 0.0 0.0 0.00 0.00 0.00 93 1019.7
20260906094125 57 360 0.0 0.0 0.00 0.00 0.00 93 1019.8
20260906093625 57 360 0.0 0.0 0.00 0.00 0.00 93 1019.8
20260906093125 57 360 0.0 0.0 0.00 0.00 0.00 93 1019.7
20260906092625 57 360 0.0 0.0 0.00 0.00 0.00 92 1019.6
20260906092125 58 360 0.0 0.0 0.00 0.00 0.00 92 1019.6
20260906091626 58 360 0.0 0.0 0.00 0.00 0.00 92 1019.5
20260906091126 58 360 0.0 0.0 0.00 0.00 0.00 92 1019.5
20260906090625 58 360 0.0 0.0 0.00 0.00 0.00 92 1019.6
20260906090125 58 360 0.0 0.0 0.00 0.00 0.00 92 1019.5
20260906085625 58 360 0.0 0.0 0.00 0.00 0.00 91 1019.4
20260906085125 58 360 0.0 0.0 0.00 0.00 0.00 91 1019.3
20260906084625 58 360 0.0 0.0 0.00 0.00 0.00 91 1019.2
20260906084125 58 360 0.0 0.0 0.00 0.00 0.00 90 1019.0
20260906083625 59 360 0.0 0.0 0.00 0.00 0.00 90 1018.8
20260906083125 59 360 0.0 0.0 0.00 0.00 0.00 90 1018.7
20260906082626 59 360 0.0 0.0 0.00 0.00 0.00 90 1018.6
20260906082125 59 360 0.0 0.0 0.00 0.00 0.00 89 1018.6
20260906081625 59 360 0.0 0.0 0.00 0.00 0.00 89 1018.5
20260906081128 59 360 0.0 0.0 0.00 0.00 0.00 89 1018.5
20260906080625 60 360 0.0 0.0 0.00 0.00 0.00 89 1018.4
20260906080125 60 360 0.0 0.0 0.00 0.00 0.00 89 1018.4
20260906075626 60 360 0.0 0.0 0.00 0.00 0.00 89 1018.3
20260906075126 60 360 0.0 0.0 0.00 0.00 0.00 89 1018.3
20260906074626 60 360 0.0 0.0 0.00 0.00 0.00 89 1018.3
20260906074126 60 19 0.9 1.7 0.00 0.00 0.00 89 1018.2
20260906073626 60 20 0.0 1.7 0.00 0.00 0.00 89 1018.2
20260906073125 60 18 0.0 0.0 0.00 0.00 0.00 89 1018.1
20260906072625 60 360 0.0 0.0 0.00 0.00 0.00 88 1018.0
20260906072125 61 360 0.0 0.0 0.00 0.00 0.00 87 1018.0
20260906071625 61 360 0.0 0.0 0.00 0.00 0.00 87 1018.0
20260906071126 61 360 0.0 0.0 0.00 0.00 0.00 87 1017.9
20260906070626 61 360 0.0 0.0 0.00 0.00 0.00 86 1018.0
20260906070126 62 360 0.0 0.0 0.00 0.00 0.00 86 1018.0
20260906065625 62 360 0.0 0.0 0.00 0.00 0.00 86 1018.0
20260906065125 62 351 0.0 0.0 0.00 0.00 0.00 86 1018.0
20260906064625 62 29 0.0 0.0 0.00 0.00 0.00 85 1018.0
20260906064125 62 33 0.9 0.9 0.00 0.00 0.00 85 1017.9
20260906063625 62 360 0.0 0.0 0.00 0.00 0.00 85 1017.8
20260906063126 63 360 0.0 0.0 0.00 0.00 0.00 84 1017.8
20260906062625 63 345 0.0 0.0 0.00 0.00 0.00 84 1017.7
20260906062127 63 13 0.9 1.7 0.00 0.00 0.00 84 1017.7
20260906061625 63 360 0.0 0.0 0.00 0.00 0.00 84 1017.7
20260906061125 63 360 0.0 0.0 0.00 0.00 0.00 84 1017.7
20260906060625 63 6 0.9 1.7 0.00 0.00 0.00 84 1017.7
20260906060125 64 10 0.9 1.7 0.00 0.00 0.00 84 1017.6
20260906055625 64 360 0.9 1.7 0.00 0.00 0.00 84 1017.6
20260906055125 64 335 1.7 1.7 0.00 0.00 0.00 84 1017.6
20260906054625 64 360 0.0 0.0 0.00 0.00 0.00 84 1017.5
20260906054125 64 23 0.0 0.0 0.00 0.00 0.00 84 1017.5
20260906053625 64 9 1.7 1.7 0.00 0.00 0.00 83 1017.5
20260906053125 64 7 0.9 0.9 0.00 0.00 0.00 84 1017.5
20260906052625 64 9 0.9 1.7 0.00 0.00 0.00 84 1017.5
20260906052125 64 360 0.0 0.0 0.00 0.00 0.00 84 1017.5
20260906051627 65 289 0.0 0.0 0.00 0.00 0.00 84 1017.6
20260906051125 65 267 0.9 1.7 0.00 0.00 0.00 85 1017.6
20260906050625 65 351 0.9 0.9 0.00 0.00 0.00 85 1017.5
20260906050125 65 20 0.0 0.9 0.00 0.00 0.00 85 1017.5
20260906045625 65 360 0.0 0.0 0.00 0.00 0.00 85 1017.5
20260906045126 65 343 0.9 1.7 0.00 0.00 0.00 85 1017.5
20260906044626 65 360 0.0 0.9 0.00 0.00 0.00 85 1017.5
20260906044126 66 360 0.0 0.0 0.00 0.00 0.00 85 1017.5
20260906043625 66 259 0.0 0.0 0.00 0.00 0.00 85 1017.5
20260906042745 66 101 0.0 0.0 0.00 0.00 0.00 85 1017.2
20260906042706 66 89 0.9 1.7 0.00 0.00 0.00 85 1017.2
20260906042125 67 1 0.9 0.9 0.00 0.00 0.00 86 1017.2
20260906041626 67 12 0.9 1.7 0.00 0.00 0.00 86 1017.0
20260906041125 67 92 0.9 1.7 0.00 0.00 0.00 86 1017.0
20260906040626 67 356 0.9 1.7 0.00 0.00 0.00 86 1017.0
20260906040127 67 355 0.0 0.9 0.00 0.00 0.00 85 1017.0
20260906035625 67 360 0.0 0.0 0.00 0.00 0.00 85 1016.9
20260906035125 67 360 0.0 0.0 0.00 0.00 0.00 85 1016.9
20260906034625 68 135 0.9 1.7 0.00 0.00 0.00 85 1016.9
20260906034125 68 347 0.0 0.9 0.00 0.00 0.00 85 1016.8
20260906033625 68 12 0.0 1.7 0.00 0.00 0.00 84 1016.7
20260906033126 68 360 0.0 0.0 0.00 0.00 0.00 84 1016.6
20260906032626 68 17 0.0 0.9 0.00 0.00 0.00 84 1016.6
20260906032126 69 3 0.9 1.7 0.00 0.00 0.00 84 1016.5
20260906031627 69 18 1.7 2.6 0.00 0.00 0.00 84 1016.6
20260906031126 69 360 0.0 0.0 0.00 0.00 0.00 84 1016.5
20260906030625 69 94 0.0 0.0 0.00 0.00 0.00 84 1016.6
20260906030125 69 360 0.0 0.0 0.00 0.00 0.00 84 1016.5
20260906025626 70 360 0.0 0.0 0.00 0.00 0.00 84 1016.5
20260906025125 70 360 0.0 0.0 0.00 0.00 0.00 84 1016.5
20260906024628 70 86 0.0 0.0 0.00 0.00 0.00 84 1016.4
20260906024126 70 56 0.9 1.7 0.00 0.00 0.00 84 1016.4
20260906023625 70 65 0.9 0.9 0.00 0.00 0.00 85 1016.4
20260906023125 70 21 0.9 1.7 0.00 0.00 0.00 85 1016.4
20260906022625 71 3 0.9 0.9 0.00 0.00 0.00 86 1016.3
20260906022126 71 139 0.9 0.9 0.00 0.00 0.00 88 1016.3
20260906021625 71 199 0.0 0.9 0.00 0.00 0.00 88 1016.2
20260906021125 71 360 0.0 0.0 0.00 0.00 0.00 91 1016.6
20260906020625 71 360 0.0 0.0 0.00 0.00 0.00 92 1016.9
20260906020126 72 360 0.0 0.0 0.00 0.00 0.00 92 1017.0
20260906015625 72 4 0.0 0.9 0.00 0.00 0.00 92 1017.0
20260906015127 72 360 0.0 0.0 0.00 0.00 0.00 92 1017.0
20260906014625 72 360 0.0 0.0 0.00 0.00 0.00 92 1017.0
20260906014125 72 360 0.0 0.0 0.00 0.00 0.00 92 1017.2
20260906013625 72 360 0.0 0.0 0.00 0.00 0.00 91 1017.0
20260906013125 72 347 0.0 0.0 0.00 0.00 0.00 91 1017.0
20260906012625 72 360 0.0 0.0 0.00 0.00 0.00 91 1017.0
20260906012125 72 360 0.0 0.0 0.00 0.00 0.00 91 1016.9
20260906011625 72 360 0.0 0.0 0.00 0.00 0.00 90 1016.7
20260906011125 72 360 0.0 0.0 0.00 0.00 0.00 90 1016.7
20260906010626 72 360 0.0 0.0 0.00 0.00 0.00 90 1016.5
20260906010126 73 360 0.0 0.0 0.00 0.00 0.00 90 1016.5
20260906005627 73 360 0.0 0.0 0.00 0.00 0.00 90 1016.4
20260906005126 73 318 0.9 0.9 0.00 0.00 0.00 89 1016.4
20260906004626 73 259 0.0 0.0 0.00 0.00 0.00 88 1016.3
20260906004125 73 360 0.0 0.0 0.00 0.00 0.00 88 1016.1
20260906003625 73 324 0.9 1.7 0.00 0.00 0.00 87 1016.2
20260906003125 73 341 0.9 1.7 0.00 0.00 0.00 86 1016.0
20260906002625 74 256 0.0 0.0 0.00 0.00 0.00 83 1015.6
20260906002125 74 360 0.0 0.0 0.00 0.00 0.00 82 1015.4
20260906001627 74 360 0.0 0.0 0.00 0.00 0.00 81 1015.3
20260906001125 74 360 0.0 0.0 0.00 0.00 0.00 81 1015.3
20260906000625 75 360 0.0 0.0 0.00 0.00 0.00 80 1015.3
20260906000125 75 360 0.0 0.0 0.00 0.00 0.00 80 1015.4
20260905235625 76 360 0.0 0.0 0.00 0.00 0.00 79 1015.3
20260905235127 76 360 0.0 0.0 0.00 0.00 0.00 78 1015.3
20260905234625 76 360 0.0 0.0 0.00 0.00 0.00 77 1015.3
20260905234125 77 360 0.0 0.0 0.00 0.00 0.00 76 1015.2
20260905233625 78 40 0.0 0.9 0.00 0.00 0.00 75 1015.2
20260905233125 78 140 0.0 0.0 0.00 0.00 0.00 74 1015.1
20260905232625 79 360 0.0 0.0 0.00 0.00 0.00 72 1015.1
20260905232125 80 349 0.9 1.7 0.00 0.00 0.00 70 1015.1
20260905231625 81 14 0.0 0.0 0.00 0.00 0.00 69 1015.1
20260905231125 81 25 0.9 1.7 0.00 0.00 0.00 68 1015.1
20260905230625 81 356 0.0 0.0 0.00 0.00 0.00 69 1015.1
20260905230125 80 334 0.0 0.0 0.00 0.00 0.00 70 1015.0
20260905225625 79 360 0.0 0.0 0.00 0.00 0.00 72 1015.0
20260905225125 79 360 1.7 1.7 0.00 0.00 0.00 72 1015.0
20260905224626 78 359 0.9 0.9 0.00 0.00 0.00 73 1015.0
20260905224125 78 17 0.9 1.7 0.00 0.00 0.00 73 1015.0
20260905223626 77 26 2.6 2.6 0.00 0.00 0.00 73 1015.0
20260905223125 77 17 1.7 2.6 0.00 0.00 0.00 75 1015.0
20260905222625 76 350 0.0 0.9 0.00 0.00 0.00 76 1015.0
20260905222131 77 19 0.9 1.7 0.00 0.00 0.00 76 1015.0
20260905221626 77 23 0.0 0.0 0.00 0.00 0.00 78 1014.9
20260905221125 77 34 2.6 3.5 0.00 0.00 0.00 78 1014.8
20260905220626 77 360 0.0 0.0 0.00 0.00 0.00 82 1014.8
20260905220125 76 356 1.7 2.6 0.00 0.00 0.00 81 1014.7
20260905215626 76 345 0.9 1.7 0.00 0.00 0.00 83 1014.7
20260905215125 76 338 0.9 1.7 0.00 0.00 0.00 84 1014.8
20260905214625 75 360 0.0 0.0 0.00 0.00 0.00 85 1014.9
20260905214125 75 202 0.0 0.9 0.00 0.00 0.00 86 1015.0
20260905213625 75 28 2.6 3.5 0.00 0.00 0.00 85 1014.8
20260905213125 74 32 1.7 2.6 0.00 0.00 0.00 85 1014.7
20260905212625 74 109 0.9 0.9 0.00 0.00 0.00 87 1014.9
20260905212125 74 27 1.7 1.7 0.00 0.00 0.00 87 1014.8
20260905211626 74 40 1.7 3.5 0.00 0.00 0.00 89 1014.7
20260905211125 73 27 1.7 1.7 0.00 0.00 0.00 90 1014.8
20260905210625 73 29 0.9 1.7 0.00 0.00 0.00 91 1014.5
20260905210127 72 347 0.0 0.0 0.00 0.00 0.00 93 1015.0
20260905205625 72 27 0.9 1.7 0.00 0.00 0.00 94 1015.1
20260905205125 72 257 0.0 0.9 0.00 0.00 0.00 95 1015.5
20260905204625 72 22 1.7 1.7 0.00 0.00 0.00 95 1015.8
20260905204125 71 5 0.9 0.9 0.00 0.00 0.00 96 1016.1
20260905203625 71 353 0.9 1.7 0.00 0.00 0.00 96 1016.1
20260905203126 71 141 0.0 0.9 0.00 0.00 0.00 96 1016.4
20260905202626 71 33 0.9 1.7 0.00 0.00 0.00 96 1016.4
20260905202125 71 1 0.9 1.7 0.00 0.00 0.00 96 1016.5
20260905201626 71 219 0.9 1.7 0.00 0.00 0.00 96 1016.6
20260905201126 70 334 0.0 0.9 0.00 0.00 0.00 96 1016.6
20260905200626 70 19 0.0 1.7 0.00 0.00 0.00 95 1016.7
20260905200125 70 25 0.9 1.7 0.00 0.00 0.00 95 1016.7
20260905195625 70 6 0.9 1.7 0.00 0.00 0.00 95 1016.6
20260905195125 70 7 0.9 1.7 0.00 0.00 0.00 95 1016.6
20260905194626 70 10 0.9 1.7 0.00 0.00 0.00 94 1016.5
20260905194127 70 22 2.6 3.5 0.00 0.00 0.00 94 1016.4
20260905193626 70 8 1.7 1.7 0.00 0.00 0.00 94 1016.5
20260905193125 70 14 0.9 1.7 0.00 0.00 0.00 94 1016.6
20260905192627 71 17 3.5 3.5 0.00 0.00 0.00 94 1016.6
20260905192125 71 16 1.7 3.5 0.00 0.00 0.00 94 1016.6
20260905191626 71 24 1.7 1.7 0.00 0.00 0.00 94 1016.9
20260905191125 71 9 1.7 1.7 0.00 0.00 0.00 94 1016.8
20260905190628 71 9 1.7 1.7 0.00 0.00 0.00 93 1016.9
20260905190125 71 37 2.6 3.5 0.00 0.00 0.00 92 1016.7
20260905185626 71 5 1.7 1.7 0.00 0.00 0.00 91 1016.5
20260905185125 71 1 0.9 1.7 0.00 0.00 0.00 90 1016.4
20260905184626 72 24 1.7 2.6 0.00 0.00 0.00 90 1016.3
20260905184125 72 2 1.7 2.6 0.00 0.00 0.00 89 1016.1
20260905183626 72 10 1.7 1.7 0.00 0.00 0.00 88 1016.0
20260905183126 72 28 2.6 3.5 0.00 0.00 0.00 87 1015.8
20260905182625 73 25 2.6 3.5 0.00 0.00 0.00 87 1015.7
20260905182126 73 33 0.0 0.9 0.00 0.00 0.00 87 1015.8
20260905181625 73 360 1.7 2.6 0.00 0.00 0.00 86 1015.6
20260905181125 73 22 1.7 1.7 0.00 0.00 0.00 86 1015.6
20260905180628 73 16 0.0 0.9 0.00 0.00 0.00 86 1015.6
20260905180125 73 26 1.7 1.7 0.00 0.00 0.00 86 1015.5
20260905175627 74 3 0.9 1.7 0.00 0.00 0.00 85 1015.6
20260905175125 74 352 0.0 0.0 0.00 0.00 0.00 85 1015.6
20260905174625 74 59 1.7 1.7 0.00 0.00 0.00 84 1015.5
20260905174125 74 7 1.7 1.7 0.00 0.00 0.00 84 1015.4
20260905173625 74 42 0.0 1.7 0.00 0.00 0.00 84 1015.5
20260905173125 75 28 0.0 0.9 0.00 0.00 0.00 83 1015.4
20260905172625 75 33 0.9 0.9 0.00 0.00 0.00 83 1015.3
20260905172125 75 140 1.7 2.6 0.00 0.00 0.00 83 1015.3
20260905171625 75 14 2.6 3.5 0.00 0.00 0.00 82 1015.2
20260905171125 75 323 1.7 1.7 0.00 0.00 0.00 82 1015.1
20260905170625 75 214 1.7 1.7 0.00 0.00 0.00 83 1015.2
20260905170126 75 31 0.0 1.7 0.00 0.00 0.00 83 1015.2
20260905165626 75 22 1.7 1.7 0.00 0.00 0.00 83 1015.2
20260905165126 74 356 0.9 1.7 0.00 0.00 0.00 84 1015.2
20260905164625 74 41 0.9 1.7 0.00 0.00 0.00 83 1015.1
20260905164125 74 332 0.9 1.7 0.00 0.00 0.00 84 1015.2
20260905163626 74 326 0.9 1.7 0.00 0.00 0.00 85 1015.3
20260905163126 74 177 1.7 1.7 0.00 0.00 0.00 85 1015.2
20260905162626 74 34 0.9 1.7 0.00 0.00 0.00 86 1015.2
20260905162125 73 182 1.7 1.7 0.00 0.00 0.00 87 1015.4
20260905161625 73 151 0.0 0.0 0.00 0.00 0.00 88 1015.5
20260905161125 73 278 1.7 1.7 0.00 0.00 0.00 87 1015.4
20260905160626 73 7 1.7 2.6 0.00 0.00 0.00 87 1015.3
20260905160125 73 359 1.7 1.7 0.00 0.00 0.00 88 1015.4
20260905155625 73 347 0.9 1.7 0.00 0.00 0.00 88 1015.5
20260905155126 73 1 1.7 2.6 0.00 0.00 0.00 88 1015.4
20260905154625 72 13 1.7 3.5 0.00 0.00 0.00 88 1015.3
20260905154125 72 28 1.7 2.6 0.00 0.00 0.00 88 1015.2
20260905153626 72 6 0.9 1.7 0.00 0.00 0.00 90 1015.3
20260905153126 72 224 0.9 1.7 0.00 0.00 0.00 90 1015.4
20260905152625 72 11 0.0 0.0 0.00 0.00 0.00 90 1015.3
20260905152125 72 40 1.7 2.6 0.00 0.00 0.00 90 1015.0
20260905151625 72 29 0.9 0.9 0.00 0.00 0.00 91 1015.2
20260905151127 72 5 0.9 1.7 0.00 0.00 0.00 92 1015.4
20260905150625 72 34 1.7 2.6 0.00 0.00 0.00 91 1015.1
20260905150126 71 323 0.0 0.9 0.00 0.00 0.00 93 1015.4
20260905145627 71 21 1.7 2.6 0.00 0.00 0.00 93 1015.3
20260905145128 71 82 0.9 1.7 0.00 0.00 0.00 93 1015.4
20260905144626 71 76 0.0 0.9 0.00 0.00 0.00 94 1015.5
20260905144125 71 12 2.6 2.6 0.00 0.00 0.00 94 1015.4
20260905143626 71 256 0.9 0.9 0.00 0.00 0.00 94 1015.4
20260905143126 71 36 1.7 1.7 0.00 0.00 0.00 95 1015.5
20260905142625 71 4 0.9 1.7 0.00 0.00 0.00 95 1015.4
20260905142125 71 353 1.7 1.7 0.00 0.00 0.00 95 1015.5
20260905141626 71 163 0.0 0.9 0.00 0.00 0.00 96 1015.8
20260905141126 71 27 0.9 1.7 0.00 0.00 0.00 96 1015.6
20260905140627 71 39 0.9 1.7 0.00 0.00 0.00 96 1015.6
20260905140125 71 47 1.7 2.6 0.00 0.00 0.00 96 1015.6
20260905135626 71 19 0.9 1.7 0.00 0.00 0.00 96 1015.8
20260905135125 71 7 1.7 2.6 0.00 0.00 0.00 97 1015.9
20260905134625 71 355 2.6 2.6 0.00 0.00 0.00 97 1015.8
20260905134125 71 360 0.0 0.0 0.00 0.00 0.00 97 1015.8
20260905133626 71 20 1.7 3.5 0.00 0.00 0.00 96 1015.9
20260905133126 71 358 0.9 1.7 0.00 0.00 0.00 97 1016.0
20260905132625 71 335 0.9 1.7 0.00 0.00 0.00 97 1016.0
20260905132126 71 8 0.9 1.7 0.00 0.00 0.00 97 1016.1
20260905131625 71 358 1.7 1.7 0.00 0.00 0.00 97 1016.1
20260905131125 71 360 0.0 0.0 0.00 0.00 0.00 98 1016.2
20260905130625 71 329 0.0 0.9 0.00 0.00 0.00 97 1016.2
20260905130125 71 85 1.7 1.7 0.00 0.00 0.00 98 1016.2
20260905125625 71 322 0.9 1.7 0.00 0.00 0.00 98 1016.2
20260905125125 71 12 0.9 1.7 0.00 0.00 0.00 98 1016.2
20260905124625 71 9 1.7 1.7 0.00 0.00 0.00 98 1016.2
20260905124125 71 340 0.9 1.7 0.00 0.00 0.00 98 1016.2
20260905123626 71 18 0.9 1.7 0.00 0.00 0.00 98 1016.1
20260905123125 71 287 1.7 1.7 0.00 0.00 0.00 98 1016.0
20260905122626 71 19 0.9 1.7 0.00 0.00 0.00 98 1015.9
20260905122125 71 301 0.9 0.9 0.00 0.00 0.00 98 1016.0
20260905121625 71 258 1.7 2.6 0.00 0.00 0.00 98 1016.0